| time (UTC) | temp F | wind direction | speed MPH | gust MPH | rain 1hr in | rain 24hr in | rain mn in | humidity % | barometer mb |
| 20260505124557 | 63 | 177 | 3.0 | 9.0 | 0.00 | 0.00 | 0.00 | 67 | 1011.4 |
| 20260505123103 | 63 | 196 | 3.0 | 7.0 | 0.00 | 0.00 | 0.00 | 69 | 1011.3 |
| 20260505121557 | 63 | 213 | 3.0 | 8.0 | 0.00 | 0.00 | 0.00 | 68 | 1011.2 |
| 20260505120052 | 62 | 142 | 3.0 | 7.0 | 0.00 | 0.00 | 0.00 | 68 | 1011.1 |
| 20260505114551 | 62 | 208 | 3.0 | 8.0 | 0.00 | 0.00 | 0.00 | 69 | 1011.2 |
| 20260505113053 | 61 | 246 | 2.0 | 8.0 | 0.00 | 0.00 | 0.00 | 71 | 1011.3 |
| 20260505111545 | 60 | 220 | 3.0 | 7.0 | 0.00 | 0.00 | 0.00 | 72 | 1011.3 |
| 20260505101536 | 53 | 341 | 1.0 | 2.0 | 0.00 | 0.00 | 0.00 | 86 | 1011.0 |
| 20260505100033 | 53 | 199 | 0.0 | 0.0 | 0.00 | 0.00 | 0.00 | 86 | 1010.6 |
| 20260505094532 | 53 | 200 | 0.0 | 0.0 | 0.00 | 0.00 | 0.00 | 85 | 1010.4 |
| 20260505093036 | 53 | 200 | 0.0 | 0.0 | 0.00 | 0.00 | 0.00 | 85 | 1010.2 |
| 20260505091531 | 53 | 200 | 0.0 | 0.0 | 0.00 | 0.00 | 0.00 | 84 | 1010.2 |
| 20260505090031 | 54 | 200 | 0.0 | 0.0 | 0.00 | 0.00 | 0.00 | 84 | 1010.4 |
| 20260505084531 | 54 | 176 | 0.0 | 0.0 | 0.00 | 0.00 | 0.00 | 85 | 1010.3 |
| 20260505083032 | 53 | 171 | 0.0 | 0.0 | 0.00 | 0.00 | 0.00 | 87 | 1010.2 |
| 20260505081528 | 52 | 171 | 0.0 | 0.0 | 0.00 | 0.00 | 0.00 | 86 | 1010.3 |
| 20260505080027 | 52 | 171 | 0.0 | 0.0 | 0.00 | 0.00 | 0.00 | 86 | 1010.4 |
| 20260505074526 | 52 | 170 | 0.0 | 0.0 | 0.00 | 0.00 | 0.00 | 86 | 1010.2 |
| 20260505073023 | 52 | 171 | 0.0 | 1.0 | 0.00 | 0.00 | 0.00 | 86 | 1010.1 |
| 20260505071522 | 53 | 204 | 0.0 | 1.0 | 0.00 | 0.00 | 0.00 | 86 | 1010.0 |
| 20260505070020 | 53 | 204 | 0.0 | 2.0 | 0.00 | 0.00 | 0.00 | 86 | 1010.1 |
| 20260505064517 | 53 | 110 | 0.0 | 2.0 | 0.00 | 0.00 | 0.00 | 86 | 1010.1 |
| 20260505063017 | 53 | 188 | 0.0 | 4.0 | 0.00 | 0.00 | 0.00 | 86 | 1010.2 |
| 20260505061513 | 53 | 127 | 0.0 | 3.0 | 0.00 | 0.00 | 0.00 | 85 | 1010.3 |
| 20260505060012 | 53 | 172 | 0.0 | 3.0 | 0.00 | 0.00 | 0.00 | 85 | 1010.3 |
| 20260505054510 | 53 | 108 | 0.0 | 7.0 | 0.00 | 0.00 | 0.00 | 84 | 1010.4 |
| 20260505053008 | 53 | 138 | 0.0 | 4.0 | 0.00 | 0.00 | 0.00 | 83 | 1010.4 |
| 20260505051516 | 54 | 194 | 0.0 | 4.0 | 0.00 | 0.00 | 0.00 | 81 | 1010.5 |
| 20260505041555 | 56 | 195 | 1.0 | 5.0 | 0.00 | 0.00 | 0.00 | 76 | 1010.7 |
| 20260505040050 | 57 | 186 | 1.0 | 4.0 | 0.00 | 0.00 | 0.00 | 74 | 1010.8 |
| 20260505034549 | 57 | 193 | 1.0 | 5.0 | 0.00 | 0.00 | 0.00 | 72 | 1010.9 |
| 20260505033048 | 58 | 192 | 0.0 | 3.0 | 0.00 | 0.00 | 0.00 | 71 | 1010.8 |
| 20260505031554 | 58 | 147 | 2.0 | 5.0 | 0.00 | 0.00 | 0.00 | 71 | 1010.8 |
| 20260505030047 | 59 | 153 | 2.0 | 6.0 | 0.00 | 0.00 | 0.00 | 69 | 1010.9 |
| 20260505024552 | 58 | 192 | 2.0 | 7.0 | 0.00 | 0.00 | 0.00 | 71 | 1010.9 |
| 20260505023046 | 58 | 238 | 0.0 | 3.0 | 0.00 | 0.00 | 0.00 | 70 | 1011.0 |
| 20260505021550 | 58 | 198 | 1.0 | 5.0 | 0.00 | 0.00 | 0.00 | 71 | 1011.1 |
| 20260505020045 | 58 | 131 | 1.0 | 6.0 | 0.00 | 0.00 | 0.00 | 69 | 1011.0 |
| 20260505014546 | 61 | 150 | 1.0 | 6.0 | 0.00 | 0.00 | 0.00 | 64 | 1010.9 |
| 20260505013045 | 62 | 216 | 2.0 | 11.0 | 0.00 | 0.00 | 0.00 | 60 | 1010.9 |
| 20260505011543 | 61 | 218 | 4.0 | 9.0 | 0.00 | 0.00 | 0.00 | 61 | 1010.6 |
| 20260505010053 | 60 | 183 | 2.0 | 8.0 | 0.00 | 0.00 | 0.00 | 65 | 1010.4 |
| 20260505004542 | 60 | 227 | 2.0 | 9.0 | 0.00 | 0.00 | 0.00 | 66 | 1010.3 |
| 20260505003041 | 58 | 156 | 1.0 | 6.0 | 0.00 | 0.00 | 0.00 | 73 | 1010.2 |
| 20260505001643 | 57 | 128 | 0.0 | 8.0 | 0.00 | 0.00 | 0.00 | 76 | 1010.0 |
| 20260505000045 | 58 | 109 | 1.0 | 6.0 | 0.00 | 0.00 | 0.00 | 74 | 1009.6 |
| 20260504234539 | 58 | 195 | 2.0 | 9.0 | 0.00 | 0.00 | 0.00 | 74 | 1009.4 |
| 20260504233047 | 58 | 127 | 2.0 | 9.0 | 0.00 | 0.00 | 0.00 | 75 | 1009.2 |
| 20260504231543 | 59 | 142 | 5.0 | 12.0 | 0.00 | 0.00 | 0.00 | 74 | 1009.2 |
| 20260504230048 | 59 | 143 | 4.0 | 12.0 | 0.00 | 0.00 | 0.00 | 73 | 1009.1 |
| 20260504224536 | 60 | 152 | 4.0 | 11.0 | 0.00 | 0.00 | 0.00 | 72 | 1009.2 |
| 20260504223034 | 61 | 180 | 2.0 | 12.0 | 0.00 | 0.00 | 0.00 | 70 | 1009.1 |
| 20260504221532 | 61 | 51 | 6.0 | 14.0 | 0.00 | 0.00 | 0.00 | 69 | 1009.3 |
| 20260504220031 | 61 | 122 | 3.0 | 13.0 | 0.00 | 0.00 | 0.00 | 70 | 1009.3 |
| 20260504214528 | 61 | 148 | 4.0 | 12.0 | 0.00 | 0.00 | 0.00 | 69 | 1009.4 |
| 20260504213027 | 62 | 114 | 2.0 | 12.0 | 0.00 | 0.00 | 0.00 | 67 | 1009.7 |
| 20260504211526 | 62 | 167 | 5.0 | 15.0 | 0.00 | 0.00 | 0.00 | 67 | 1009.7 |
| 20260504210032 | 62 | 220 | 4.0 | 14.0 | 0.00 | 0.00 | 0.00 | 65 | 1009.7 |
| 20260504204524 | 64 | 136 | 3.0 | 10.0 | 0.00 | 0.00 | 0.00 | 62 | 1009.6 |
| 20260504203034 | 64 | 102 | 2.0 | 11.0 | 0.00 | 0.00 | 0.00 | 62 | 1009.7 |
| 20260504201521 | 65 | 196 | 3.0 | 9.0 | 0.00 | 0.00 | 0.00 | 61 | 1009.8 |
| 20260504200020 | 65 | 142 | 5.0 | 11.0 | 0.00 | 0.00 | 0.00 | 59 | 1009.9 |
| 20260504194518 | 66 | 93 | 3.0 | 10.0 | 0.00 | 0.00 | 0.00 | 57 | 1009.9 |
| 20260504193018 | 67 | 196 | 3.0 | 11.0 | 0.00 | 0.00 | 0.00 | 55 | 1010.1 |
| 20260504191523 | 68 | 164 | 4.0 | 9.0 | 0.00 | 0.00 | 0.00 | 52 | 1010.2 |
| 20260504190013 | 72 | 200 | 5.0 | 15.0 | 0.00 | 0.00 | 0.00 | 36 | 1010.3 |
| 20260504184509 | 71 | 273 | 5.0 | 14.0 | 0.00 | 0.00 | 0.00 | 36 | 1010.5 |
| 20260504183007 | 71 | 145 | 6.0 | 12.0 | 0.00 | 0.00 | 0.00 | 36 | 1010.7 |
| 20260504181505 | 71 | 207 | 3.0 | 14.0 | 0.00 | 0.00 | 0.00 | 36 | 1010.9 |
| 20260504180006 | 70 | 223 | 5.0 | 15.0 | 0.00 | 0.00 | 0.00 | 37 | 1011.1 |
| 20260504174502 | 70 | 211 | 5.0 | 12.0 | 0.00 | 0.00 | 0.00 | 37 | 1011.3 |
| 20260504173103 | 70 | 281 | 5.0 | 13.0 | 0.00 | 0.00 | 0.00 | 37 | 1011.4 |
| 20260504171559 | 68 | 219 | 5.0 | 17.0 | 0.00 | 0.00 | 0.00 | 37 | 1011.5 |